Time,TemperatureF,DewpointF,PressureIn,WindDirection,WindDirectionDegrees,WindSpeedMPH,WindSpeedGustMPH,Humidity,HourlyPrecipIn,Conditions,Clouds,dailyrainin,SolarRadiationWatts/m^2,SoftwareType,DateUTC
2013-01-12 00:02:00,3.0,-7.0,-100.00,North,352,2.0,5.0,63,0.00,,,0.06,0.000000,,2013-01-12 07:02:00,
2013-01-12 00:12:00,3.0,-7.0,-100.00,North,352,2.0,5.0,63,0.00,,,0.06,0.000000,,2013-01-12 07:12:00,
2013-01-12 00:22:00,3.0,-7.0,-100.00,North,352,2.0,5.0,63,0.00,,,0.06,0.000000,,2013-01-12 07:22:00,
2013-01-12 00:32:00,3.0,-7.0,-100.00,North,352,2.0,5.0,63,0.00,,,0.06,0.000000,,2013-01-12 07:32:00,
2013-01-12 01:02:00,3.0,-9.0,-100.00,NNE,28,2.0,5.0,57,-99.99,,,0.06,0.000000,,2013-01-12 08:02:00,
2013-01-12 01:11:00,3.0,-9.0,-100.00,NNE,28,2.0,5.0,57,-99.99,,,0.06,0.000000,,2013-01-12 08:11:00,
2013-01-12 01:22:00,3.0,-9.0,-100.00,NNE,28,2.0,5.0,57,-99.99,,,0.06,0.000000,,2013-01-12 08:22:00,
2013-01-12 01:32:00,3.0,-9.0,-100.00,NNE,28,2.0,5.0,57,-99.99,,,0.06,0.000000,,2013-01-12 08:32:00,
2013-01-12 02:02:00,3.0,-8.0,-100.00,SSE,157,0.0,5.0,60,0.00,,,0.06,0.000000,,2013-01-12 09:02:00,
2013-01-12 02:12:00,3.0,-8.0,-100.00,SSE,157,0.0,5.0,60,0.00,,,0.06,0.000000,,2013-01-12 09:12:00,
2013-01-12 02:22:00,3.0,-8.0,-100.00,SSE,157,0.0,5.0,60,0.00,,,0.06,0.000000,,2013-01-12 09:22:00,
2013-01-12 02:32:00,3.0,-8.0,-100.00,SSE,157,0.0,5.0,60,0.00,,,0.06,0.000000,,2013-01-12 09:32:00,
2013-01-12 02:40:00,3.0,-8.0,-100.00,NNE,16,1.0,2.0,60,0.00,,,0.05,0.000000,,2013-01-12 09:40:00,
2013-01-12 03:02:00,3.0,-8.0,-100.00,NNE,16,1.0,2.0,60,0.00,,,0.05,0.000000,,2013-01-12 10:02:00,
2013-01-12 03:11:00,3.0,-8.0,-100.00,NNE,16,1.0,2.0,60,0.00,,,0.05,0.000000,,2013-01-12 10:11:00,
2013-01-12 03:22:00,3.0,-8.0,-100.00,NNE,16,1.0,2.0,60,0.00,,,0.05,0.000000,,2013-01-12 10:22:00,
2013-01-12 03:32:00,3.0,-8.0,-100.00,NNE,16,1.0,2.0,60,0.00,,,0.05,0.000000,,2013-01-12 10:32:00,
2013-01-12 03:40:00,1.0,-8.0,-100.00,NNE,16,0.0,3.0,64,0.00,,,0.01,0.000000,,2013-01-12 10:40:00,
2013-01-12 04:02:00,1.0,-8.0,-100.00,NNE,16,0.0,3.0,64,0.00,,,0.01,0.000000,,2013-01-12 11:02:00,
2013-01-12 04:12:00,1.0,-8.0,-100.00,NNE,16,0.0,3.0,64,0.00,,,0.01,0.000000,,2013-01-12 11:12:00,
2013-01-12 04:22:00,1.0,-8.0,-100.00,NNE,16,0.0,3.0,64,0.00,,,0.01,0.000000,,2013-01-12 11:22:00,
2013-01-12 04:32:00,1.0,-8.0,-100.00,NNE,16,0.0,3.0,64,0.00,,,0.01,0.000000,,2013-01-12 11:32:00,
2013-01-12 04:40:00,1.0,-9.0,-100.00,NW,312,0.0,0.0,63,0.00,,,0.01,0.000000,,2013-01-12 11:40:00,
2013-01-12 05:02:00,1.0,-9.0,-100.00,NW,312,0.0,0.0,63,0.00,,,0.01,0.000000,,2013-01-12 12:02:00,
2013-01-12 05:12:00,1.0,-9.0,-100.00,NW,312,0.0,0.0,63,0.00,,,0.01,0.000000,,2013-01-12 12:12:00,
2013-01-12 05:22:00,1.0,-9.0,-100.00,NW,312,0.0,0.0,63,0.00,,,0.01,0.000000,,2013-01-12 12:22:00,
2013-01-12 05:32:00,1.0,-9.0,-100.00,NW,312,0.0,0.0,63,0.00,,,0.01,0.000000,,2013-01-12 12:32:00,
2013-01-12 05:40:00,0.0,-9.0,-100.00,WSW,251,0.0,2.0,65,0.00,,,0.01,0.000000,,2013-01-12 12:40:00,
2013-01-12 06:02:00,0.0,-9.0,-100.00,WSW,251,0.0,2.0,65,0.00,,,0.01,0.000000,,2013-01-12 13:02:00,
2013-01-12 06:12:00,0.0,-9.0,-100.00,WSW,251,0.0,2.0,65,0.00,,,0.01,0.000000,,2013-01-12 13:12:00,
2013-01-12 06:22:00,0.0,-9.0,-100.00,WSW,251,0.0,2.0,65,0.00,,,0.01,0.000000,,2013-01-12 13:22:00,
2013-01-12 06:32:00,0.0,-9.0,-100.00,WSW,251,0.0,2.0,65,0.00,,,0.01,0.000000,,2013-01-12 13:32:00,
2013-01-12 07:02:00,0.0,-9.0,-100.00,SSE,158,0.0,2.0,64,0.00,,,0.00,0.000000,,2013-01-12 14:02:00,
2013-01-12 07:12:00,0.0,-9.0,-100.00,SSE,158,0.0,2.0,64,0.00,,,0.00,0.000000,,2013-01-12 14:12:00,
2013-01-12 07:22:00,0.0,-9.0,-100.00,SSE,158,0.0,2.0,64,0.00,,,0.00,0.000000,,2013-01-12 14:22:00,
2013-01-12 07:32:00,0.0,-9.0,-100.00,SSE,158,0.0,2.0,64,0.00,,,0.00,0.000000,,2013-01-12 14:32:00,
2013-01-12 08:03:00,0.0,-9.0,-100.00,NE,48,0.0,2.0,64,-99.99,,,0.00,2.000000,,2013-01-12 15:03:00,
2013-01-12 08:12:00,0.0,-9.0,-100.00,NE,48,0.0,2.0,64,-99.99,,,0.00,2.000000,,2013-01-12 15:12:00,
2013-01-12 08:22:00,0.0,-9.0,-100.00,NE,48,0.0,2.0,64,-99.99,,,0.00,2.000000,,2013-01-12 15:22:00,
2013-01-12 08:33:00,0.0,-9.0,-100.00,NE,48,0.0,2.0,64,-99.99,,,0.00,2.000000,,2013-01-12 15:33:00,
2013-01-12 09:03:00,3.0,-7.0,-100.00,SSE,154,3.0,4.0,63,0.00,,,0.00,37.000000,,2013-01-12 16:03:00,
2013-01-12 09:12:00,3.0,-7.0,-100.00,SSE,154,3.0,4.0,63,0.00,,,0.00,37.000000,,2013-01-12 16:12:00,
2013-01-12 09:22:00,3.0,-7.0,-100.00,SSE,154,3.0,4.0,63,0.00,,,0.00,37.000000,,2013-01-12 16:22:00,
2013-01-12 09:32:00,3.0,-7.0,-100.00,SSE,154,3.0,4.0,63,0.00,,,0.00,37.000000,,2013-01-12 16:32:00,
2013-01-12 09:40:00,9.0,-2.0,-100.00,SSE,163,3.0,5.0,59,0.00,,,0.00,187.000000,,2013-01-12 16:40:00,
2013-01-12 10:02:00,9.0,-2.0,-100.00,SSE,163,3.0,5.0,59,0.00,,,0.00,187.000000,,2013-01-12 17:02:00,
2013-01-12 10:12:00,9.0,-2.0,-100.00,SSE,163,3.0,5.0,59,0.00,,,0.00,187.000000,,2013-01-12 17:12:00,
2013-01-12 10:22:00,9.0,-2.0,-100.00,SSE,163,3.0,5.0,59,0.00,,,0.00,187.000000,,2013-01-12 17:22:00,
2013-01-12 10:32:00,9.0,-2.0,-100.00,SSE,163,3.0,5.0,59,0.00,,,0.00,187.000000,,2013-01-12 17:32:00,
2013-01-12 10:40:00,11.0,-3.0,-100.00,WNW,302,6.0,8.0,53,0.00,,,0.00,317.000000,,2013-01-12 17:40:00,
2013-01-12 11:02:00,11.0,-3.0,-100.00,WNW,302,6.0,8.0,53,0.00,,,0.00,317.000000,,2013-01-12 18:02:00,
2013-01-12 11:12:00,11.0,-3.0,-100.00,WNW,302,6.0,8.0,53,0.00,,,0.00,317.000000,,2013-01-12 18:12:00,
2013-01-12 11:22:00,11.0,-3.0,-100.00,WNW,302,6.0,8.0,53,0.00,,,0.00,317.000000,,2013-01-12 18:22:00,
2013-01-12 11:33:00,11.0,-3.0,-100.00,WNW,302,6.0,8.0,53,0.00,,,0.00,317.000000,,2013-01-12 18:33:00,
2013-01-12 11:40:00,19.0,1.0,-100.00,North,7,4.0,8.0,44,0.00,,,0.00,574.000000,,2013-01-12 18:40:00,
2013-01-12 12:03:00,19.0,1.0,-100.00,North,7,4.0,8.0,44,0.00,,,0.00,574.000000,,2013-01-12 19:03:00,
2013-01-12 12:12:00,19.0,1.0,-100.00,North,7,4.0,8.0,44,0.00,,,0.00,574.000000,,2013-01-12 19:12:00,
2013-01-12 12:22:00,19.0,1.0,-100.00,North,7,4.0,8.0,44,0.00,,,0.00,574.000000,,2013-01-12 19:22:00,
2013-01-12 12:32:00,19.0,1.0,-100.00,North,7,4.0,8.0,44,0.00,,,0.00,574.000000,,2013-01-12 19:32:00,
2013-01-12 12:40:00,10.0,-3.0,-100.00,WNW,293,6.0,10.0,56,0.00,,,0.00,225.000000,,2013-01-12 19:40:00,
2013-01-12 13:02:00,10.0,-3.0,-100.00,WNW,293,6.0,10.0,56,0.00,,,0.00,225.000000,,2013-01-12 20:02:00,
2013-01-12 13:12:00,10.0,-3.0,-100.00,WNW,293,6.0,10.0,56,0.00,,,0.00,225.000000,,2013-01-12 20:12:00,
2013-01-12 13:22:00,10.0,-3.0,-100.00,WNW,293,6.0,10.0,56,0.00,,,0.00,225.000000,,2013-01-12 20:22:00,
2013-01-12 13:32:00,10.0,-3.0,-100.00,WNW,293,6.0,10.0,56,0.00,,,0.00,225.000000,,2013-01-12 20:32:00,
2013-01-12 13:40:00,13.0,0.0,-100.00,West,273,5.0,8.0,54,0.00,,,0.00,323.000000,,2013-01-12 20:40:00,
2013-01-12 14:02:00,13.0,0.0,-100.00,West,273,5.0,8.0,54,0.00,,,0.00,323.000000,,2013-01-12 21:02:00,
2013-01-12 14:12:00,13.0,0.0,-100.00,West,273,5.0,8.0,54,0.00,,,0.00,323.000000,,2013-01-12 21:12:00,
2013-01-12 14:22:00,13.0,0.0,-100.00,West,273,5.0,8.0,54,0.00,,,0.00,323.000000,,2013-01-12 21:22:00,
2013-01-12 14:32:00,13.0,0.0,-100.00,West,273,5.0,8.0,54,0.00,,,0.00,323.000000,,2013-01-12 21:32:00,
2013-01-12 14:40:00,14.0,-2.0,-100.00,WNW,285,4.0,10.0,47,0.00,,,0.00,573.000000,,2013-01-12 21:40:00,
2013-01-12 15:02:00,14.0,-2.0,-100.00,WNW,285,4.0,10.0,47,0.00,,,0.00,573.000000,,2013-01-12 22:02:00,
2013-01-12 15:12:00,14.0,-2.0,-100.00,WNW,285,4.0,10.0,47,0.00,,,0.00,573.000000,,2013-01-12 22:12:00,
2013-01-12 15:22:00,14.0,-2.0,-100.00,WNW,285,4.0,10.0,47,0.00,,,0.00,573.000000,,2013-01-12 22:22:00,
2013-01-12 15:32:00,14.0,-2.0,-100.00,WNW,285,4.0,10.0,47,0.00,,,0.00,573.000000,,2013-01-12 22:32:00,
2013-01-12 15:40:00,15.0,-2.0,-100.00,WNW,288,5.0,12.0,46,0.00,,,0.00,409.000000,,2013-01-12 22:40:00,
2013-01-12 16:02:00,15.0,-2.0,-100.00,WNW,288,5.0,12.0,46,0.00,,,0.00,409.000000,,2013-01-12 23:02:00,
2013-01-12 16:12:00,15.0,-2.0,-100.00,WNW,288,5.0,12.0,46,0.00,,,0.00,409.000000,,2013-01-12 23:12:00,
2013-01-12 16:22:00,15.0,-2.0,-100.00,WNW,288,5.0,12.0,46,0.00,,,0.00,409.000000,,2013-01-12 23:22:00,
2013-01-12 16:32:00,15.0,-2.0,-100.00,WNW,288,5.0,12.0,46,0.00,,,0.00,409.000000,,2013-01-12 23:32:00,
2013-01-12 16:40:00,8.0,-4.0,-100.00,WNW,301,4.0,11.0,58,0.00,,,0.00,253.000000,,2013-01-12 23:40:00,
2013-01-12 17:03:00,8.0,-4.0,-100.00,WNW,301,4.0,11.0,58,0.00,,,0.00,253.000000,,2013-01-13 00:03:00,
2013-01-12 17:12:00,8.0,-4.0,-100.00,WNW,301,4.0,11.0,58,0.00,,,0.00,253.000000,,2013-01-13 00:12:00,
2013-01-12 17:22:00,8.0,-4.0,-100.00,WNW,301,4.0,11.0,58,0.00,,,0.00,253.000000,,2013-01-13 00:22:00,
2013-01-12 17:32:00,8.0,-4.0,-100.00,WNW,301,4.0,11.0,58,0.00,,,0.00,253.000000,,2013-01-13 00:32:00,
2013-01-12 17:40:00,3.0,-5.0,-100.00,WNW,289,2.0,6.0,67,0.00,,,0.00,10.000000,,2013-01-13 00:40:00,
2013-01-12 18:12:00,3.0,-5.0,-100.00,WNW,289,2.0,6.0,67,0.00,,,0.00,10.000000,,2013-01-13 01:12:00,
2013-01-12 18:22:00,3.0,-5.0,-100.00,WNW,289,2.0,6.0,67,0.00,,,0.00,10.000000,,2013-01-13 01:22:00,
2013-01-12 18:32:00,3.0,-5.0,-100.00,WNW,289,2.0,6.0,67,0.00,,,0.00,10.000000,,2013-01-13 01:32:00,
2013-01-12 18:40:00,3.0,-4.0,-100.00,NW,324,4.0,5.0,72,0.00,,,-99.99,0.000000,,2013-01-13 01:40:00,
2013-01-12 19:02:00,3.0,-4.0,-100.00,NW,324,4.0,5.0,72,0.00,,,-99.99,0.000000,,2013-01-13 02:02:00,
2013-01-12 19:12:00,3.0,-4.0,-100.00,NW,324,4.0,5.0,72,0.00,,,-99.99,0.000000,,2013-01-13 02:12:00,
2013-01-12 19:22:00,3.0,-4.0,-100.00,NW,324,4.0,5.0,72,0.00,,,-99.99,0.000000,,2013-01-13 02:22:00,
2013-01-12 19:32:00,3.0,-4.0,-100.00,NW,324,4.0,5.0,72,0.00,,,-99.99,0.000000,,2013-01-13 02:32:00,
2013-01-12 19:40:00,2.0,-4.0,-100.00,North,350,3.0,6.0,74,0.00,,,0.00,0.000000,,2013-01-13 02:40:00,
2013-01-12 20:02:00,2.0,-4.0,-100.00,North,350,3.0,6.0,74,0.00,,,0.00,0.000000,,2013-01-13 03:02:00,
2013-01-12 20:12:00,2.0,-4.0,-100.00,North,350,3.0,6.0,74,0.00,,,0.00,0.000000,,2013-01-13 03:12:00,
2013-01-12 20:22:00,2.0,-4.0,-100.00,North,350,3.0,6.0,74,0.00,,,0.00,0.000000,,2013-01-13 03:22:00,
2013-01-12 20:32:00,2.0,-4.0,-100.00,North,350,3.0,6.0,74,0.00,,,0.00,0.000000,,2013-01-13 03:32:00,
2013-01-12 20:40:00,2.0,-5.0,-100.00,NNW,342,4.0,5.0,73,0.00,,,0.00,0.000000,,2013-01-13 03:40:00,
2013-01-12 21:02:00,2.0,-5.0,-100.00,NNW,342,4.0,5.0,73,0.00,,,0.00,0.000000,,2013-01-13 04:02:00,
2013-01-12 21:12:00,2.0,-5.0,-100.00,NNW,342,4.0,5.0,73,0.00,,,0.00,0.000000,,2013-01-13 04:12:00,
2013-01-12 21:22:00,2.0,-5.0,-100.00,NNW,342,4.0,5.0,73,0.00,,,0.00,0.000000,,2013-01-13 04:22:00,
2013-01-12 21:32:00,2.0,-5.0,-100.00,NNW,342,4.0,5.0,73,0.00,,,0.00,0.000000,,2013-01-13 04:32:00,
2013-01-12 21:40:00,1.0,-5.0,-100.00,NNW,340,3.0,5.0,74,0.00,,,0.00,0.000000,,2013-01-13 04:40:00,
2013-01-12 22:03:00,1.0,-5.0,-100.00,NNW,340,3.0,5.0,74,0.00,,,0.00,0.000000,,2013-01-13 05:03:00,
2013-01-12 22:12:00,1.0,-5.0,-100.00,NNW,340,3.0,5.0,74,0.00,,,0.00,0.000000,,2013-01-13 05:12:00,
2013-01-12 22:22:00,1.0,-5.0,-100.00,NNW,340,3.0,5.0,74,0.00,,,0.00,0.000000,,2013-01-13 05:22:00,
2013-01-12 22:32:00,1.0,-5.0,-100.00,NNW,340,3.0,5.0,74,0.00,,,0.00,0.000000,,2013-01-13 05:32:00,
2013-01-12 22:40:00,2.0,-4.0,-100.00,NW,322,2.0,4.0,74,0.00,,,-99.99,0.000000,,2013-01-13 05:40:00,
2013-01-12 23:02:00,2.0,-4.0,-100.00,NW,322,2.0,4.0,74,0.00,,,-99.99,0.000000,,2013-01-13 06:02:00,
2013-01-12 23:12:00,2.0,-4.0,-100.00,NW,322,2.0,4.0,74,0.00,,,-99.99,0.000000,,2013-01-13 06:12:00,
2013-01-12 23:22:00,2.0,-4.0,-100.00,NW,322,2.0,4.0,74,0.00,,,-99.99,0.000000,,2013-01-13 06:22:00,
2013-01-12 23:32:00,2.0,-4.0,-100.00,NW,322,2.0,4.0,74,0.00,,,-99.99,0.000000,,2013-01-13 06:32:00,
2013-01-12 23:40:00,1.0,-4.0,-100.00,North,6,2.0,3.0,77,0.00,,,0.00,0.000000,,2013-01-13 06:40:00,